Humidity-temperature Sensor

Selected Measurement Type: Air Temperature

 
Air Temperature [°C]     6 entries per hour
Showing data from 3/1/2017 (00:00:00 Z) to 2/28/2017 (00:01:00 Z)
Previous Next [ Day | 3-Days | 7-Days ]
First Last
Prev [ Day | 3-Days | 7-Days ] Next
First Last

Start Time:     :
End Time:     :     
Time (in GMT) :00 :50 :40 :30 :20 :10
Previous Next [ Day | 3-Days | 7-Days ]
First Last
Prev [ Day | 3-Days | 7-Days ] Next
First Last


123 => good data
MM => data is determined as missing
-- => data not received/configured
Back to Top Back to Top
3/1/2017 00:00 to 23:10 26.50 26.38 27.16 27.08 27.06 27.13
2/28/2017 23:00 to 22:10 27.02 27.03 27.04 26.98 26.98 26.96
2/28/2017 22:00 to 21:10 26.73 26.58 26.38 26.34 25.80 25.49
2/28/2017 21:00 to 20:10 25.13 25.06 26.20 26.08 25.78 25.70
2/28/2017 20:00 to 19:10 26.06 26.29 26.28 26.12 25.98 26.41
2/28/2017 19:00 to 18:10 26.14 26.32 26.20 26.55 26.53 26.52
2/28/2017 18:00 to 17:10 26.39 26.40 26.26 26.21 26.16 26.25
2/28/2017 17:00 to 16:10 26.21 26.11 26.10 25.94 25.94 25.86
2/28/2017 16:00 to 15:10 25.82 25.71 25.86 25.77 25.74 25.72
2/28/2017 15:00 to 14:10 25.59 25.49 25.41 25.34 25.31 25.43
2/28/2017 14:00 to 13:10 25.25 25.40 25.40 25.82 25.87 25.86
2/28/2017 13:00 to 12:10 26.03 25.91 26.24 26.27 26.27 26.23
2/28/2017 12:00 to 11:10 26.18 26.16 26.11 26.25 26.14 26.11
2/28/2017 11:00 to 10:10 26.24 26.17 26.13 26.20 26.10 26.14
2/28/2017 10:00 to 9:10 -- -- -- -- -- --
2/28/2017 09:00 to 8:10 26.32 26.29 26.28 26.29 26.29 26.26
2/28/2017 08:00 to 7:10 26.27 26.26 26.34 26.37 26.39 26.44
2/28/2017 07:00 to 6:10 26.40 26.26 26.40 26.39 26.39 26.31
2/28/2017 06:00 to 5:10 26.34 26.29 26.25 26.29 26.17 26.22
2/28/2017 05:00 to 4:10 26.25 26.26 26.21 26.29 26.18 26.11
2/28/2017 04:00 to 3:10 26.14 26.03 26.21 25.96 25.76 25.75
2/28/2017 03:00 to 2:10 26.01 25.82 26.12 26.04 26.17 26.18
2/28/2017 02:00 to 1:10 26.26 26.25 26.37 26.62 26.54 26.45
2/28/2017 01:00 to 0:10 26.57 26.40 26.39 26.30 26.50 26.50